Flag Weather past 2 weeks in Nouakchott, Mauritania

Now
66 °F

Clear.


Feels Like: 66 °F
Forecast: 65 / 79 °F
Wind: 7 mph from North

Location: Nouakchott Airport

Current Time: Nov 23, 2014 at 5:57:21 AM

Latest Report: Nov 23, 2014 at 5:30 AM


Visibility: 5 mi

Pressure: 29.95 "Hg

Humidity: 73%

Dew point: 57 °F

Location of NouakchottLocation

Historic Weather in Nouakchott — Graph

°F

Nouakchott temperature yesterday

Maximum temperature yesterday: 82 °F (at 12:30 PM)
Minimum temperature yesterday: 66 °F (at 6:30 AM)
Average temperature yesterday: 74 °F

Past Weeks' High & Low Weather Summary

 TemperatureHumidityPressure
High102 °F (Nov 8, 2:30 PM)94% (Nov 20, 7:30 AM)29.98 "Hg (Nov 20, 7:30 AM)
Low63 °F (Nov 12, 7:30 AM)9% (Nov 15, 12:00 PM)29.77 "Hg (Nov 17, 3:00 PM)
Average77 °F56%29.89 "Hg
* Reported Nov 8 4:00 AM — Nov 23 4:30 AM, Nouakchott, Weather by CustomWeather, © 2014

Note: Actual official high and low records may vary slightly from our data, if they occured in-between our weather recording intervals... More about our weather records

Advertising

Nouakchott weather history for previous 24 hours

 ConditionsComfort  
Time TempWeatherWind HumidityBarometerVisibility
4:30 AM
Nov 23
66 °FClear.8 mph78%29.95 "Hg5 mi
4:00 AM66 °FClear.9 mph78%29.95 "Hg5 mi
3:30 AM66 °FClear.7 mph78%29.95 "Hg5 mi
3:00 AM66 °FClear.8 mph78%29.95 "Hg5 mi
2:30 AM68 °FClear.6 mph73%29.98 "Hg5 mi
2:00 AM68 °FClear.6 mph73%29.98 "Hg5 mi
1:30 AM68 °FClear.7 mph78%29.98 "Hg5 mi
1:00 AM68 °FClear.7 mph78%29.98 "Hg5 mi
12:30 AM68 °FClear.5 mph78%29.98 "Hg5 mi
12:00 AM70 °FClear.7 mph69%29.98 "Hg5 mi
11:30 PM
Nov 22
70 °FClear.7 mph64%29.98 "Hg5 mi
11:00 PM70 °FClear.10 mph60%29.98 "Hg5 mi
10:30 PM70 °FClear.7 mph64%29.98 "Hg5 mi
10:00 PM70 °FClear.8 mph69%29.98 "Hg5 mi
9:30 PM72 °FClear.8 mph69%29.98 "Hg5 mi
9:00 PM72 °FClear.8 mph73%29.98 "Hg5 mi
8:30 PM72 °FPassing clouds.8 mph73%29.98 "Hg5 mi
8:00 PM72 °FPassing clouds.7 mph69%29.98 "Hg5 mi
7:30 PM73 °FPassing clouds.8 mph65%29.95 "Hg5 mi
7:00 PM73 °FPassing clouds.7 mph61%29.95 "Hg5 mi
6:30 PM75 °FPassing clouds.12 mph54%29.92 "Hg5 mi
6:00 PM75 °FPassing clouds.12 mph54%29.92 "Hg5 mi
5:30 PM77 °FPassing clouds.12 mph51%29.92 "Hg5 mi
5:00 PM79 °FPassing clouds.10 mph48%29.92 "Hg5 mi
4:30 PM81 °FPassing clouds.9 mph48%29.92 "Hg5 mi
4:00 PM81 °FPassing clouds.10 mph48%29.92 "Hg5 mi
3:30 PM81 °FPassing clouds.13 mph48%29.92 "Hg5 mi
3:00 PM82 °FPassing clouds.10 mph45%29.92 "Hg5 mi
2:30 PM82 °FPassing clouds.10 mph48%29.92 "Hg5 mi
2:00 PM82 °FPassing clouds.9 mph45%29.92 "Hg5 mi
1:30 PM82 °FPassing clouds.8 mph45%29.95 "Hg5 mi
1:00 PM82 °FPassing clouds.7 mph45%29.95 "Hg5 mi
12:30 PM82 °FPassing clouds.9 mph45%29.95 "Hg5 mi
12:00 PM81 °FPassing clouds.7 mph54%29.95 "Hg5 mi
11:30 AM79 °FPassing clouds.10 mph58%29.95 "Hg5 mi
11:00 AM79 °FPassing clouds.8 mph61%29.95 "Hg5 mi
10:30 AM77 °FPassing clouds.7 mph65%29.98 "Hg5 mi
10:00 AM75 °FPassing clouds.8 mph74%29.95 "Hg5 mi
9:30 AM75 °FClear.5 mph74%29.95 "Hg5 mi
9:00 AM72 °FClear.6 mph83%29.95 "Hg5 mi
8:30 AM72 °FClear.3 mph83%29.92 "Hg5 mi
8:00 AM70 °FScattered clouds.3 mph88%29.92 "Hg5 mi
7:30 AM68 °FScattered clouds.2 mph88%29.92 "Hg5 mi
7:00 AM66 °FPassing clouds.1 mph88%29.92 "Hg5 mi
6:30 AM66 °FPassing clouds.No wind88%29.92 "Hg5 mi
6:00 AM68 °FPassing clouds.2 mph88%29.89 "Hg5 mi
5:30 AM68 °FPassing clouds.1 mph88%29.89 "Hg5 mi
5:00 AM68 °FMild.2 mph88%29.89 "HgN/A
Weather by CustomWeather, © 2014

See weather overviewHow to use our weather pages